Stations météo

Publicité
Tours, France (7240): Température de l'air & dewpoint: 11.12.2018 12:00:00 - 17.12.2018 12:00:00 (CET)Tours, France (7240): Température de l'air 5cm: 11.12.2018 12:00:00 - 17.12.2018 12:00:00 (CET)Tours, France (7240): Température de l'air -20cm & Température de l'air -100cm: 11.12.2018 12:00:00 - 17.12.2018 12:00:00 (CET)Tours, France (7240): Vitesse du vent & gusts: 11.12.2018 12:00:00 - 17.12.2018 12:00:00 (CET)Tours, France (7240): Direction du vent: 11.12.2018 12:00:00 - 17.12.2018 12:00:00 (CET)Tours, France (7240): reduced air pressure: 11.12.2018 12:00:00 - 17.12.2018 12:00:00 (CET)Tours, France (7240): visibility: 11.12.2018 12:00:00 - 17.12.2018 12:00:00 (CET)Tours, France (7240): Ensoleillement: 11.12.2018 12:00:00 - 17.12.2018 12:00:00 (CET)Tours, France (7240): Quantités de précipitations: 11.12.2018 12:00:00 - 17.12.2018 12:00:00 (CET)
Date & Time tt [°C] td [°C] tt 5cm [°C] tt -20cm [°C] tt -100cm [°C] ff [km/h] ff [knt] fx [km/h] fx [knt] dd ppp [hPa] vv [km] sd [min] rr [mm]
17.12.2018 12:00:00 8,5 6,5 9,2 6,2 10,0 9 5 21 11 SSW 1025,5 20 60 0,0
17.12.2018 11:00:00 6,4 5,2 5,7 6,2 10,0 9 5 17 9 SSW 1025,5 20 60 0,0
17.12.2018 10:00:00 4,6 4,0 1,7 6,3 10,0 8 4 15 8 SW 1024,9 16 53 0,0
17.12.2018 09:00:00 3,7 3,3 1,0 6,3 10,0 9 5 16 8 SW 1023,6 15 0 0,0
17.12.2018 08:00:00 4,3 3,7 2,2 6,4 10,0 10 5 19 10 SW 1022,6 18 0 0,0
17.12.2018 07:00:00 4,4 4,0 2,6 6,4 10,0 12 6 19 10 WSW 1021,8 15 0 0,0
17.12.2018 06:00:00 4,7 4,3 2,4 6,4 10,0 11 6 20 11 SW 1021,0 17 0 0,0
17.12.2018 05:00:00 4,3 3,9 1,8 6,4 10,0 10 6 16 8 WSW 1020,1 15 0 0,0
17.12.2018 04:00:00 4,7 4,3 3,3 6,4 10,1 9 5 16 9 WSW 1019,5 17 0 0,0
17.12.2018 03:00:00 5,0 4,4 3,4 6,4 10,1 10 5 20 11 W 1018,7 17 0 0,0
17.12.2018 02:00:00 5,6 5,0 4,3 6,4 10,1 12 6 25 13 WSW 1017,7 20 0 0,0
17.12.2018 01:00:00 6,0 5,3 4,8 6,4 10,1 15 8 22 12 WSW 1016,7 36 0 0,0
17.12.2018 00:00:00 6,6 5,9 5,4 6,4 10,1 14 7 24 13 WSW 1016,0 50 0 0,0
16.12.2018 23:00:00 7,4 6,5 6,5 6,3 10,1 12 6 22 12 WSW 1014,8 53 0 0,0
16.12.2018 22:00:00 7,7 7,3 7,0 6,3 10,2 13 7 22 12 WSW 1013,8 13 0 1,2
16.12.2018 21:00:00 8,1 7,5 7,1 6,2 10,2 19 10 33 18 SW 1012,8 4,7 0 0,8
16.12.2018 20:00:00 7,7 7,1 6,8 6,2 10,2 13 7 24 13 S 1012,0 11 0 0,0
16.12.2018 19:00:00 7,9 7,3 6,9 6,1 10,2 13 7 22 12 S 1011,8 12 0 0,0
16.12.2018 18:00:00 8,4 7,5 7,7 6,0 10,3 12 6 25 14 SSE 1011,5 20 0 0,2
16.12.2018 17:00:00 8,8 8,2 8,1 5,9 10,2 16 8 32 17 S 1011,6 11 0 0,4
16.12.2018 16:00:00 8,9 8,3 8,9 5,9 10,3 14 8 22 12 S 1011,3 12 14 0,0
16.12.2018 15:00:00 8,4 8,3 8,3 5,8 10,3 9 5 23 12 S 1011,6 10 0 0,0
16.12.2018 14:00:00 7,7 7,7 7,8 5,7 10,3 16 9 26 14 S 1011,9 4,4 0 0,0
16.12.2018 13:00:00 7,4 7,4 7,0 5,7 10,3 10 5 17 9 S 1012,5 1,4 0 0,0
16.12.2018 12:00:00 6,5 6,5 6,4 5,6 10,3 9 5 16 9 S 1013,3 0,2 0 0,0
16.12.2018 11:00:00 6,1 6,0 6,3 5,6 10,4 10 5 16 8 SSE 1013,8 0,3 15 0,0
16.12.2018 10:00:00 5,9 5,8 4,5 5,6 10,4 7 4 14 7 SSE 1013,5 1,4 17 0,0
16.12.2018 09:00:00 5,4 5,3 3,2 5,6 10,4 8 4 15 8 SSW 1013,4 1,1 0 0,0
16.12.2018 08:00:00 5,7 5,6 3,1 5,6 10,4 9 5 15 8 SSW 1013,3 1,8 0 0,0
16.12.2018 07:00:00 5,5 5,4 3,0 5,6 10,4 10 5 16 9 SSW 1013,3 4,8 0 0,0
16.12.2018 06:00:00 5,9 5,8 3,1 5,6 10,5 9 5 17 9 SSW 1013,4 0,7 0 0,0
16.12.2018 05:00:00 6,4 6,0 4,6 5,5 10,5 11 6 24 13 SW 1013,5 6 0 0,0
16.12.2018 04:00:00 6,8 6,5 5,3 5,5 10,5 14 8 21 12 WSW 1013,6 6 0 0,0
16.12.2018 03:00:00 6,9 6,6 4,8 5,4 10,5 15 8 22 12 WSW 1013,5 8 0 0,0
16.12.2018 02:00:00 7,2 6,9 5,5 5,4 10,5 13 7 20 11 WSW 1012,9 7 0 0,0
16.12.2018 01:00:00 8,0 7,7 6,6 5,3 10,6 14 8 25 14 WSW 1012,2 9 0 0,0
16.12.2018 00:00:00 8,4 8,3 7,3 5,3 10,6 16 9 27 15 SW 1011,6 10 0 0,0
15.12.2018 23:00:00 8,4 8,3 7,2 5,2 10,6 22 12 36 20 SW 1011,0 20 0 0,0
15.12.2018 22:00:00 7,8 7,8 5,7 5,2 10,6 22 12 38 21 SSW 1010,8 4,7 0 0,0
15.12.2018 21:00:00 5,8 5,8 4,1 5,2 10,6 16 9 24 13 S 1010,8 1,9 0 1,4
15.12.2018 20:00:00 4,3 4,3 3,1 5,2 10,6 13 7 26 14 SSE 1011,7 2,5 0 0,0
15.12.2018 19:00:00 3,2 3,1 2,3 5,2 10,7 12 7 26 14 SSE 1012,4 2,4 0 0,0
15.12.2018 18:00:00 2,3 2,2 1,0 5,2 10,7 16 9 25 14 SE 1013,2 1,6 0 1,6
15.12.2018 17:00:00 1,4 1,3 0,1 5,3 10,7 17 9 34 18 SE 1014,1 1,9 0 1,6
15.12.2018 16:00:00 0,7 0,4 0,1 5,3 10,7 21 12 32 17 SE 1015,0 2,1 0 2,5
15.12.2018 15:00:00 0,4 0,0 0,1 5,3 10,7 19 11 32 17 SE 1016,1 1,3 0 1,2
15.12.2018 14:00:00 0,0 -0,6 0,1 5,3 10,7 20 11 32 18 SE 1017,5 2,8 0 0,6
15.12.2018 13:00:00 -0,3 -1,0 -0,4 5,4 10,7 20 11 31 17 SE 1018,5 2,5 0 0,6
15.12.2018 12:00:00 -0,6 -1,3 -0,7 5,4 10,8 19 11 30 16 ESE 1020,0 3,5 0 0,6
15.12.2018 11:00:00 -0,9 -1,9 -1,2 5,4 10,8 17 9 32 18 ESE 1021,0 3,3 0 0,2
15.12.2018 10:00:00 -1,2 -2,3 -1,7 5,5 10,8 19 10 29 16 SE 1021,2 3,8 0 0,4
15.12.2018 09:00:00 -1,6 -3,0 -2,3 5,6 10,8 16 8 27 15 ESE 1021,6 6 0 0,0
15.12.2018 08:00:00 -2,0 -3,4 -2,8 5,6 10,8 15 8 22 12 SE 1021,9 6 0 0,0
15.12.2018 07:00:00 -2,6 -3,7 -3,3 5,6 10,8 14 8 22 12 SE 1022,3 5 0 0,0
15.12.2018 06:00:00 -2,7 -3,7 -3,3 5,7 10,9 13 7 21 12 SE 1022,7 4,1 0 0,0
15.12.2018 05:00:00 -2,9 -3,6 -4,6 5,7 10,9 10 5 15 8 ESE 1023,1 3,7 0 0,0
15.12.2018 04:00:00 -3,5 -4,0 -6,4 5,8 10,9 6 3 14 7 ESE 1023,6 2,9 0 0,0
15.12.2018 03:00:00 -3,7 -4,4 -5,4 5,8 10,9 5 3 15 8 S 1024,0 3,0 0 0,0
15.12.2018 02:00:00 -4,0 -4,8 -6,1 5,9 10,9 8 4 10 6 SE 1023,9 3,4 0 0,0
15.12.2018 01:00:00 -3,5 -4,3 -5,6 5,9 11,0 8 4 9 5 ESE 1024,1 3,6 0 0,0
15.12.2018 00:00:00 -2,9 -4,3 -4,3 6,0 11,0 9 5 16 9 SE 1024,6 5 0 0,0
14.12.2018 23:00:00 -2,1 -3,8 -4,1 6,0 10,9 10 5 17 9 ESE 1024,4 8 0 0,0
14.12.2018 22:00:00 -1,9 -2,7 -5,8 6,1 11,0 9 5 13 7 ENE 1024,6 5 0 0,0
14.12.2018 21:00:00 -2,0 -3,3 -4,7 6,1 11,0 3 1 11 6 SSE 1024,9 7 0 0,0
14.12.2018 20:00:00 -1,1 -2,5 -4,0 6,1 11,0 8 4 10 6 ENE 1024,2 8 0 0,0
14.12.2018 19:00:00 -0,6 -2,7 -3,0 6,1 11,0 5 3 13 7 ENE 1023,9 10 0 0,0
14.12.2018 18:00:00 -0,3 -2,4 -2,5 6,1 11,0 9 5 14 8 E 1023,0 10 0 0,0
14.12.2018 17:00:00 0,7 -2,5 -1,4 6,1 11,0 4 2 13 7 NE 1023,4 12 36 0,0
14.12.2018 16:00:00 1,8 -2,7 3,4 6,1 11,1 6 3 17 9 NE 1022,9 15 57 0,0
14.12.2018 15:00:00 1,7 -2,6 5,0 6,2 11,1 8 4 21 12 NNE 1022,1 15 60 0,0
14.12.2018 14:00:00 1,9 -2,8 6,4 6,2 11,1 6 3 15 8 NNE 1021,8 16 60 0,0
14.12.2018 13:00:00 1,3 -2,8 4,7 6,3 11,1 6 4 14 8 N 1022,1 14 60 0,0
14.12.2018 12:00:00 0,1 -2,8 1,6 6,4 11,1 11 6 29 16 ENE 1021,4 12 60 0,0
14.12.2018 11:00:00 -0,7 -3,2 -0,7 6,4 11,1 17 9 35 19 ENE 1020,6 11 60 0,0
14.12.2018 10:00:00 -1,5 -3,5 -2,4 6,5 11,1 14 8 24 13 NE 1020,6 11 55 0,0
14.12.2018 09:00:00 -2,1 -3,8 -4,0 6,5 11,2 8 4 15 8 NNE 1020,5 9 0 0,0
14.12.2018 08:00:00 -2,0 -3,6 -3,5 6,6 11,2 5 3 18 10 NNE 1019,7 9 0 0,0
14.12.2018 07:00:00 -1,9 -3,3 -2,9 6,7 11,2 12 7 28 15 NE 1018,4 8 0 0,0
14.12.2018 06:00:00 -1,7 -3,0 -2,8 6,7 11,2 13 7 24 13 NE 1017,5 8 0 0,0
14.12.2018 05:00:00 -1,5 -2,9 -2,5 6,8 11,2 16 9 27 14 ENE 1017,1 9 0 0,0
14.12.2018 04:00:00 -1,3 -2,7 -2,3 6,9 11,3 18 10 27 15 NE 1017,1 10 0 0,0
14.12.2018 03:00:00 -1,1 -2,5 -2,1 6,9 11,3 14 8 27 15 NE 1017,0 11 0 0,0
14.12.2018 02:00:00 -0,9 -2,3 -1,9 6,9 11,3 13 7 23 12 NE 1016,6 11 0 0,0
14.12.2018 01:00:00 -0,7 -2,1 -1,8 7,0 11,3 15 8 26 14 NE 1016,3 10 0 0,0
14.12.2018 00:00:00 -0,3 -1,9 -1,4 7,0 11,3 14 7 25 14 NE 1016,0 12 0 0,0
13.12.2018 23:00:00 -0,1 -1,7 -1,1 7,1 11,3 16 9 30 16 ENE 1015,1 13 0 0,0
13.12.2018 22:00:00 0,4 -1,4 -0,3 7,1 11,3 19 11 32 18 ENE 1014,7 14 0 0,0
13.12.2018 21:00:00 0,6 -1,2 -0,3 7,2 11,3 21 12 34 18 ENE 1014,0 15 0 0,0
13.12.2018 20:00:00 0,9 -1,3 -0,4 7,2 11,3 16 9 27 14 NE 1013,5 17 0 0,0
13.12.2018 19:00:00 1,1 -1,3 -0,3 7,3 11,3 16 9 26 14 ENE 1013,0 17 0 0,0
13.12.2018 18:00:00 1,2 -1,2 -0,7 7,3 11,4 14 8 26 14 ENE 1012,2 16 0 0,0
13.12.2018 17:00:00 0,9 -1,3 -0,6 7,3 11,3 8 4 14 8 NE 1011,8 14 0 0,0
13.12.2018 16:00:00 1,4 -1,2 0,7 7,4 11,4 11 6 22 12 ENE 1011,1 16 0 0,0
13.12.2018 15:00:00 1,3 -1,3 0,8 7,4 11,4 10 6 29 15 ENE 1010,8 14 0 0,0
13.12.2018 14:00:00 1,1 -1,8 1,0 7,4 11,4 21 12 33 18 E 1010,6 16 16 0,0
13.12.2018 13:00:00 0,7 -1,9 1,0 7,5 11,4 21 11 30 16 E 1011,2 13 36 0,0
13.12.2018 12:00:00 -0,2 -2,3 0,2 7,5 11,4 20 11 40 21 E 1011,3 12 2 0,0
13.12.2018 11:00:00 -0,4 -2,0 -0,6 7,6 11,4 23 12 42 23 E 1011,4 11 20 0,0
13.12.2018 10:00:00 -0,8 -2,1 -1,2 7,7 11,4 26 14 38 20 E 1011,4 10 0 0,0
13.12.2018 09:00:00 -0,9 -2,0 -1,4 7,7 11,4 21 11 37 20 E 1011,6 9 0 0,0
13.12.2018 08:00:00 -0,9 -1,9 -1,4 7,8 11,4 23 13 36 20 E 1011,7 8 0 0,0
13.12.2018 07:00:00 -0,8 -1,8 -1,2 7,9 11,4 20 11 31 17 E 1011,8 9 0 0,0
13.12.2018 06:00:00 -0,6 -1,9 -1,1 7,9 11,5 22 12 33 18 E 1012,3 12 0 0,0
13.12.2018 05:00:00 -0,5 -1,8 -1,0 8,0 11,5 22 12 31 17 E 1012,7 14 0 0,0
13.12.2018 04:00:00 -0,4 -1,7 -1,0 8,1 11,5 18 10 31 17 E 1013,9 14 0 0,0
13.12.2018 03:00:00 -0,3 -1,6 -0,7 8,1 11,5 17 9 36 20 E 1014,5 14 0 0,0
13.12.2018 02:00:00 -0,2 -1,3 -0,7 8,2 11,5 25 13 37 20 E 1014,5 15 0 0,0
13.12.2018 01:00:00 -0,1 -1,5 -0,7 8,3 11,5 22 12 29 16 E 1015,4 20 0 0,0
13.12.2018 00:00:00 0,3 -1,5 -0,6 8,4 11,5 16 9 23 12 E 1016,5 29 0 0,0
12.12.2018 23:00:00 0,8 -1,4 -0,2 8,4 11,5 16 9 27 15 E 1016,8 32 0 0,0
12.12.2018 22:00:00 1,3 -1,4 0,3 8,5 11,5 18 10 28 15 E 1017,0 39 0 0,0
12.12.2018 21:00:00 1,4 -1,2 0,5 8,5 11,5 19 10 30 16 E 1017,4 45 0 0,0
12.12.2018 20:00:00 2,1 -0,5 1,2 8,6 11,5 18 10 28 15 ENE 1017,9 35 0 0,0
12.12.2018 19:00:00 3,0 -0,5 1,4 8,6 11,5 10 5 16 8 ENE 1018,8 31 0 0,0
12.12.2018 18:00:00 3,5 -0,5 0,6 8,5 11,5 5 3 15 8 ENE 1019,0 53 0 0,0
12.12.2018 17:00:00 4,5 -0,3 3,7 8,6 11,6 10 6 27 15 E 1018,9 60 4 0,0
12.12.2018 16:00:00 5,0 -0,6 5,0 8,6 11,6 18 10 31 17 E 1019,3 60 0 0,0
12.12.2018 15:00:00 4,8 0,4 5,3 8,5 11,6 14 7 25 14 E 1019,5 56 0 0,0
12.12.2018 14:00:00 4,7 -0,1 5,6 8,6 11,6 16 9 29 16 E 1019,9 56 13 0,0
12.12.2018 13:00:00 4,9 1,0 4,6 8,6 11,6 18 10 29 16 E 1020,3 52 27 0,0
12.12.2018 12:00:00 3,8 1,2 4,0 8,6 11,6 19 11 33 18 E 1020,9 39 0 0,0
12.12.2018 11:00:00 3,6 1,5 3,1 8,7 11,6 18 10 28 15 E 1021,8 28 0 0,0
12.12.2018 10:00:00 2,8 1,3 2,2 8,7 11,6 16 9 26 14 E 1021,9 19 0 0,0
12.12.2018 09:00:00 2,4 1,5 2,1 8,8 11,7 16 9 29 16 E 1021,6 13 0 0,0
12.12.2018 08:00:00 2,5 1,8 2,2 8,8 11,6 19 10 29 16 ENE 1021,5 11 0 0,0
12.12.2018 07:00:00 2,5 1,8 2,2 8,8 11,6 18 10 24 13 ENE 1021,5 9 0 0,0
12.12.2018 06:00:00 2,8 2,1 2,6 8,8 11,6 13 7 29 16 E 1021,8 9 0 0,0
12.12.2018 05:00:00 3,0 2,1 2,9 8,9 11,7 16 9 23 12 E 1022,2 12 0 0,0
12.12.2018 04:00:00 3,5 2,6 3,2 8,9 11,7 13 7 26 14 E 1022,4 11 0 0,0
12.12.2018 03:00:00 3,5 2,8 3,3 8,9 11,7 15 8 21 12 E 1023,0 10 0 0,0
12.12.2018 02:00:00 3,4 2,7 3,1 9,0 11,7 14 7 29 15 E 1022,8 11 0 0,0
12.12.2018 01:00:00 3,5 2,9 3,2 9,0 11,7 18 10 27 14 E 1023,0 10 0 0,0
12.12.2018 00:00:00 3,6 3,2 3,3 9,0 11,7 16 9 25 14 E 1023,4 8 0 0,0
11.12.2018 23:00:00 3,5 3,4 3,2 9,0 11,7 14 7 23 12 E 1023,5 7 0 0,0
11.12.2018 22:00:00 3,3 3,3 3,1 9,1 11,7 13 7 24 13 E 1023,9 6 0 0,0
11.12.2018 21:00:00 3,3 3,3 3,4 9,1 11,7 16 9 20 11 E 1024,3 2,0 0 0,0
11.12.2018 20:00:00 3,6 3,6 3,7 9,0 11,7 15 8 19 11 E 1024,5 0,7 0 0,0
11.12.2018 19:00:00 4,2 4,2 4,3 9,1 11,7 12 6 16 9 E 1024,8 1,1 0 0,0
11.12.2018 18:00:00 4,5 4,5 4,4 9,0 11,7 8 4 14 8 SE 1024,6 6 0 0,0
11.12.2018 17:00:00 4,3 4,3 4,5 9,0 11,7 11 6 16 9 E 1024,5 2,2 0 0,0
11.12.2018 16:00:00 4,2 4,2 4,7 9,0 11,7 6 3 - - S 1024,9 0,4 0 0,0
11.12.2018 15:00:00 4,3 4,3 4,8 8,9 11,7 - - - - - 1025,0 0,4 0 0,0
11.12.2018 14:00:00 4,0 4,0 5,1 8,9 11,7 - - - - - 1025,5 0,3 0 0,0
11.12.2018 13:00:00 3,7 3,7 5,1 9,0 11,8 - - - - - 1026,1 0,4 2 0,0
11.12.2018 12:00:00 3,6 3,6 4,1 9,0 11,7 - - - - - 1026,5 0,2 9 0,0

tt = Température de l'air
td = dewpoint
tt 5cm = Température de l'air 5cm
tt -20cm = Température de l'air -20cm
tt -100cm = Température de l'air -100cm
ff = Vitesse du vent
fx = gusts
dd = Direction du vent
ppp = reduced air pressure
vv = visibility
sd = Ensoleillement
rr = Quantités de précipitations

stations d'obs. à proximité